CZ-4 DEB, 26272

Orbit data source: Space-Track

CZ-4 DEB, 26272 is space debris in SSO originally from a launch on Thu, 14 Oct 1999 UTC launched from the Taiyaun Space Center, China (TSC). Debris objects in space refer to the collection of defunct objects orbiting the Earth. Examples of debris include non-operational satellites, rocket bodies, and fragments generated from explosions, collisions, or faulty payload assembly.

Loading next visibility...
Identifier
26272, 1999-057FJ
Orbit
SSO
Country
Flag of CNCN / PRC
Related business
Manufacturer
Unknown
Mission
Spacecraft
Bus & Motor
Unknown
Mass
Unknown
Launch date (UTC)
1999-10-14 (26 years ago)
Launch vehicle
Unknown
Launch site
Taiyaun Space Center, China (TSC)
Object type
Payload
Rocket body
Debris
Shape & HBR
Unknown shape, 0.1 m
Radar Cross Section
Small (<0.1 m²)

Expand to show TLE details & history
Last TLE update: 9 hours ago

TLE from 9 hours ago
0 CZ-4 DEB
1 26272U 99057FJ  26093.79041240  .00013260  00000-0  16671-2 0  9991
2 26272  98.2650 183.3751 0048631 324.6384 159.3872 14.81373923377846
Epoch: 2026-04-03T18:58Z
TLE epoch observation values (Epoch: 2026-04-03T18:58:11.631Z)
Latitude
55.01649°
Longitude
-101.3778°
Altitude
666.009 km
Speed
7.512 km/s
True Right ascension
01h 01m 09s
True Declination
54° 51' 10"
Sunlit
Object was in daylight at epoch
Visualization orbit readout
Latitude
Unknown
Longitude
Unknown
Altitude
Unknown
Speed
Unknown
Apparent Right ascension
Unknown
Apparent Declination
Unknown
Sunlit
N/A
Visualization observer readout
Local Sidereal Time
09:53:35
Azimuth
Unknown
Elevation
Unknown
Doppler factor
Unknown
Orbital elements
Apogee altitude
656.089 km
Perigee altitude
588.004 km
Semi-major axis
7,000.183 km
Eccentricity
0.00486
Inclination
98.265°
RAAN
183.3751°
Arg. of periapsis
324.6384°
True anomaly
159.58228°
Mean anomaly
159.3872°
Eccentric anomaly
159.48485°
Mean motion
3.70578 °/min
Orbital period
97.15 mins
BSTAR
0.0016671
Loading maneuver chart data...
Computing Atmospheric mass density...
Loading historical data...
Loading historical data...
Loading historical data...
Loading historical data...
Loading historical data...
Loading historical data...
Loading historical data...

Documentation

Showing up to 5 results
|